Weather History for KCNB - January, 2014

Change the Weather History Date:

Saturday, January 25, 2014

  Actual Average (KMML) Record (KMML)
Temperature  
Mean Temperature 14 °F -  
Max Temperature 22 °F 24 °F 55 °F (2002)
Min Temperature 6 °F 3 °F -22 °F (1961)
Degree Days  
Heating Degree Days 51    
Moisture  
Dew Point 8 °F    
Average Humidity 73    
Maximum Humidity 95    
Minimum Humidity 58    
Precipitation  
Precipitation 0.00 in - - ()
Sea Level Pressure  
Sea Level Pressure 29.81 in    
Wind  
Wind Speed 14 mph (NW)    
Max Wind Speed 22 mph    
Max Gust Speed 31 mph    
Visibility 9 miles    
Events Snow    
Averages and records for this station are not official NWS values.
T = Trace of Precipitation, MM = Missing Value Source: NWS Daily Summary

Daily Weather History Graph

Daily Weather History Graph

Search for Another Location

Airport or City:

Trip Planner

Search our weather history database for the weather conditions in past years. The results will help you decide how hot, cold, wet, or windy it might be!

Date:

Astronomy

Jan. 25, 2014 Rise Set
Actual Time 7:51 AM CST 5:23 PM CST
Civil Twilight 7:19 AM CST 5:55 PM CST
Nautical Twilight 6:44 AM CST 6:31 PM CST
Astronomical Twilight 6:09 AM CST 7:05 PM CST
Moon 2:23 AM CST (1/25) 12:25 PM CST (1/25)
Length of Visible Light 10h 35m
Length of Day
9h 32m
Waning Crescent, 34% of the Moon is Illuminated
Jan 25
Waning Crescent
Jan 30
New
Feb 6
First Quarter
Feb 14
Full
Feb 22
Last Quarter

Hourly Weather History & Observations

Time (CST) Temp. Windchill Dew Point Humidity Pressure Visibility Wind Dir Wind Speed Gust Speed Precip Events Conditions
12:15 AM 22.8 °F 7.4 °F 16.2 °F 76% 29.79 in 10.0 mi NNW 21.9 mph 26.5 mph N/A   Overcast
12:35 AM 21.7 °F 6.7 °F 15.1 °F 76% 29.80 in 10.0 mi NNW 19.6 mph 31.1 mph N/A   Overcast
12:54 AM 21.2 °F 7.8 °F 15.4 °F 78% 29.81 in 10.0 mi NNW 15.0 mph 25.3 mph N/A   Overcast
1:15 AM 21.0 °F 8.6 °F 13.5 °F 73% 29.82 in 10.0 mi North 12.7 mph 26.5 mph N/A   Overcast
1:35 AM 19.8 °F 5.9 °F 12.4 °F 73% 29.83 in 10.0 mi North 15.0 mph 20.7 mph N/A   Overcast
1:54 AM 19.0 °F 4.0 °F 11.5 °F 72% 29.84 in 10.0 mi North 17.3 mph 20.7 mph N/A   Overcast
2:14 AM 18.5 °F 4.9 °F 12.4 °F 77% 29.85 in 10.0 mi North 13.8 mph 20.7 mph N/A   Overcast
2:34 AM 17.4 °F 2.9 °F 12.0 °F 79% 29.86 in 10.0 mi North 15.0 mph - N/A   Overcast
2:55 AM 16.0 °F 2.9 °F 9.0 °F 74% 29.88 in 10.0 mi North 11.5 mph 25.3 mph N/A   Scattered Clouds
3:14 AM 14.4 °F -2.5 °F 7.7 °F 75% 29.89 in 10.0 mi NNW 18.4 mph 26.5 mph N/A   Clear
3:35 AM 13.1 °F -3.1 °F 6.3 °F 74% 29.90 in 10.0 mi NNW 16.1 mph 21.9 mph N/A   Clear
3:54 AM 12.2 °F -4.3 °F 4.1 °F 70% 29.91 in 10.0 mi NNW 16.1 mph - N/A   Clear
4:14 AM 11.7 °F -2.5 °F 2.3 °F 66% 29.91 in 10.0 mi NNW 11.5 mph 24.2 mph N/A   Clear
4:35 AM 10.9 °F -4.7 °F 2.8 °F 70% 29.92 in 10.0 mi NNW 13.8 mph 19.6 mph N/A   Clear
4:54 AM 10.8 °F -4.3 °F 3.0 °F 71% 29.92 in 10.0 mi NNW 12.7 mph - N/A   Clear
5:15 AM 10.2 °F -1.7 °F 3.2 °F 73% 29.93 in 10.0 mi NW 8.1 mph - N/A   Clear
5:35 AM 10.9 °F -4.7 °F 3.9 °F 73% 29.94 in 10.0 mi NW 13.8 mph 28.8 mph N/A   Clear
5:55 AM 10.6 °F -7.4 °F -0.9 °F 60% 29.95 in 10.0 mi NNW 18.4 mph 28.8 mph N/A   Clear
6:14 AM 9.9 °F -6.1 °F -1.3 °F 61% 29.96 in 10.0 mi NW 13.8 mph 24.2 mph N/A   Clear
6:35 AM 8.6 °F -10.0 °F -3.3 °F 59% 29.98 in 10.0 mi NNW 18.4 mph 29.9 mph N/A   Clear
6:55 AM 8.1 °F -9.6 °F -3.1 °F 60% 29.99 in 10.0 mi NNW 16.1 mph 27.6 mph N/A   Clear
7:14 AM 7.3 °F -7.9 °F -1.8 °F 66% 30.00 in 10.0 mi NW 11.5 mph - N/A   Clear
7:35 AM 7.3 °F -11.1 °F -2.6 °F 64% 30.01 in 10.0 mi NW 17.3 mph 21.9 mph N/A   Clear
7:55 AM 7.2 °F -12.4 °F -4.0 °F 60% 30.02 in 10.0 mi NNW 19.6 mph 27.6 mph N/A   Clear
8:15 AM 6.6 °F -11.5 °F -4.7 °F 60% 30.02 in 10.0 mi NNW 16.1 mph 27.6 mph N/A   Clear
8:34 AM 6.4 °F -10.5 °F -3.8 °F 63% 30.02 in 10.0 mi NNW 13.8 mph 19.6 mph N/A   Clear
8:55 AM 6.8 °F -9.3 °F -3.6 °F 62% 30.02 in 10.0 mi NNW 12.7 mph 21.9 mph N/A   Clear
9:15 AM 7.5 °F -10.3 °F -3.1 °F 62% 30.03 in 10.0 mi NNW 16.1 mph 24.2 mph N/A   Clear
9:34 AM 8.1 °F -9.6 °F -1.8 °F 64% 30.03 in 10.0 mi NW 16.1 mph 19.6 mph N/A   Clear
9:54 AM 8.2 °F -11.0 °F -2.6 °F 61% 30.04 in 10.0 mi NNW 19.6 mph 24.2 mph N/A   Clear
10:15 AM 8.4 °F -10.8 °F -3.1 °F 60% 30.04 in 10.0 mi NNW 19.6 mph 25.3 mph N/A   Clear
10:34 AM 9.0 °F -7.3 °F -2.2 °F 61% 30.03 in 10.0 mi NNW 13.8 mph 23.0 mph N/A   Clear
10:54 AM 9.1 °F -8.2 °F -2.4 °F 60% 30.04 in 10.0 mi NNW 16.1 mph 25.3 mph N/A   Clear
11:15 AM 10.2 °F -5.7 °F -0.6 °F 62% 30.02 in 10.0 mi NNW 13.8 mph - N/A   Clear
11:34 AM 11.1 °F -2.4 °F 0.5 °F 62% 30.02 in 10.0 mi NNW 10.4 mph 16.1 mph N/A   Clear
11:54 AM 11.7 °F -1.7 °F -0.4 °F 58% 30.01 in 10.0 mi NNW 10.4 mph - N/A   Clear
12:15 PM 12.2 °F -4.3 °F 1.2 °F 61% 30.01 in 10.0 mi NW 16.1 mph - N/A   Clear
12:34 PM 12.7 °F -0.4 °F 1.8 °F 62% 29.98 in 10.0 mi NNW 10.4 mph 17.3 mph N/A   Clear
12:54 PM 13.5 °F 0.5 °F 3.0 °F 63% 29.97 in 10.0 mi NW 10.4 mph - N/A   Clear
1:15 PM 13.8 °F 1.0 °F 2.5 °F 61% 29.96 in 10.0 mi NW 10.4 mph 17.3 mph N/A   Clear
1:34 PM 14.7 °F 1.4 °F 3.6 °F 61% 29.95 in 10.0 mi West 11.5 mph - N/A   Clear
1:54 PM 14.7 °F 0.1 °F 3.9 °F 62% 29.94 in 10.0 mi WNW 13.8 mph - N/A   Clear
2:15 PM 14.5 °F -0.7 °F 5.0 °F 66% 29.91 in 10.0 mi WNW 15.0 mph - N/A   Clear
2:34 PM 14.7 °F 2.9 °F 6.4 °F 70% 29.90 in 10.0 mi West 9.2 mph - N/A   Scattered Clouds
2:55 PM 14.7 °F 5.9 °F 5.5 °F 67% 29.88 in 10.0 mi West 5.8 mph - N/A   Scattered Clouds
3:15 PM 15.1 °F 4.2 °F 6.1 °F 68% 29.88 in 10.0 mi West 8.1 mph - N/A   Mostly Cloudy
3:34 PM 15.3 °F 6.6 °F 6.4 °F 68% 29.88 in 10.0 mi WSW 5.8 mph - N/A   Overcast
3:55 PM 15.6 °F 7.0 °F 6.8 °F 68% 29.87 in 10.0 mi West 5.8 mph - N/A   Overcast
4:15 PM 16.2 °F 7.6 °F 7.5 °F 69% 29.85 in 10.0 mi WSW 5.8 mph - N/A   Overcast
4:34 PM 16.7 °F 9.6 °F 8.8 °F 71% 29.83 in 10.0 mi SSW 4.6 mph - N/A   Overcast
4:55 PM 17.2 °F 11.9 °F 10.0 °F 73% 29.80 in 10.0 mi SW 3.5 mph - N/A   Overcast
5:15 PM 17.6 °F 12.3 °F 10.0 °F 72% 29.77 in 10.0 mi South 3.5 mph - N/A   Overcast
5:34 PM 18.3 °F 10.2 °F 11.1 °F 73% 29.74 in 10.0 mi South 5.8 mph - N/A   Overcast
5:55 PM 18.9 °F 9.8 °F 12.6 °F 76% 29.72 in 10.0 mi SSE 6.9 mph - N/A   Overcast
6:14 PM 18.9 °F 10.8 °F 13.8 °F 81% 29.69 in 5.0 mi SSE 5.8 mph - N/A Snow Light Snow
6:34 PM 19.0 °F 8.2 °F 14.9 °F 84% 29.66 in 2.0 mi SSE 9.2 mph - N/A Snow Light Snow
6:55 PM 19.0 °F 8.2 °F 15.6 °F 87% 29.63 in 5.0 mi SSE 9.2 mph - N/A Snow Light Snow
7:14 PM 19.4 °F 7.9 °F 16.7 °F 89% 29.61 in 1.5 mi SSE 10.4 mph - N/A Snow Light Snow
7:35 PM 19.4 °F 7.2 °F 17.6 °F 93% 29.58 in 1.2 mi SE 11.5 mph 17.3 mph N/A Snow Light Snow
7:55 PM 19.8 °F 6.5 °F 18.0 °F 93% 29.55 in 1.5 mi SE 13.8 mph - N/A Snow Light Snow
8:14 PM 19.6 °F 6.2 °F 18.3 °F 95% 29.52 in 1.5 mi SE 13.8 mph - N/A Snow Light Snow
8:34 PM 19.8 °F 6.5 °F 18.3 °F 94% 29.49 in 2.0 mi SSE 13.8 mph - N/A Snow Light Snow
8:55 PM 20.3 °F 10.6 °F 18.7 °F 93% 29.48 in 4.0 mi SSE 8.1 mph - N/A Snow Light Snow
9:14 PM 21.0 °F 10.6 °F 19.2 °F 93% 29.45 in 7.0 mi SE 9.2 mph - N/A Snow Light Snow
9:35 PM 21.6 °F 14.0 °F 19.4 °F 91% 29.43 in 10.0 mi ESE 5.8 mph - N/A Snow Light Snow
9:55 PM 21.0 °F 9.9 °F 19.0 °F 92% 29.41 in 7.0 mi SE 10.4 mph - N/A Snow Light Snow
10:15 PM 21.2 °F 12.6 °F 19.4 °F 93% 29.40 in 3.0 mi ESE 6.9 mph - N/A Snow Light Snow
10:34 PM 21.6 °F 13.0 °F 20.1 °F 94% 29.39 in 10.0 mi ESE 6.9 mph - N/A Snow Light Snow
10:55 PM 21.2 °F 12.6 °F 19.8 °F 94% 29.39 in 10.0 mi ESE 6.9 mph - N/A   Overcast
11:14 PM 21.2 °F 12.6 °F 19.9 °F 95% 29.37 in 10.0 mi ESE 6.9 mph - N/A   Overcast
11:34 PM 21.4 °F 13.8 °F 19.9 °F 94% 29.36 in 10.0 mi SE 5.8 mph - N/A   Overcast
11:55 PM 21.9 °F 15.7 °F 20.3 °F 93% 29.36 in 10.0 mi SE 4.6 mph - N/A   Overcast